PAUSAT-1

operational
NORAD ID: 62653 Int'l Des: 2025-009 Owner: PAU Country: PK
LEOCIRCULARRETROGRADESSO

Über PAUSAT-1

Beschreibung wird geladen...

Live-Position

3D-Globus wird geladen...

Nächste Überflüge

Höhenverlauf

Altitude vs Time

uPlot chart will show altitude changes over time

Zweizeiliger Elementsatz

1 62653U 25009AW 25341.22611880 .00007698 00000-0 34354-3 0 9993
2 62653 97.4146 58.6913 0000176 349.5711 10.5521 15.21655454 49578
Epoch: 7. Dez. 2025 • Age: 21 hours

Aktueller Status

Höhe 512.9 km
Geschwindigkeit 7.61 km/s
Subsatellitenpunkt 69.41°N, 146.26°E
Startdatum 14. Jan. 2025
Alter 0.8 years
Typ other

Technische Details

Klassifizierung Payload
Masse 30.00 kg
Trockenmasse 30.00 kg
Gesamtmasse 30.00 kg
Länge 0.40 m
Durchmesser 0.20 m
Spannweite 0.60 m
Form Box+2 pan
Hersteller ITUTR/PAU
Bus-Typ Cubesat 16U
Phasenstatus In Orbit
Besitzer/Staat PAU/PK

Große Konstellationen

Loading constellations...